Location: LDNL
(36.4545°S, 141.6685°E)
Time: 00:18:49
(UTC+11:00)

Vanguard 1 Rocket - All Passes

Search period start: 06 February 2023 00:00
Search period end: 16 February 2023 00:00
Orbit: 651 x 4224 km, 34.3° (Epoch: 04 February)

Date Brightness Start Highest point End Pass type
(mag) Time Alt. Az. Time Alt. Az. Time Alt. Az.
06 Feb - 01:13:09 10° WNW 01:31:39 70° NNE 01:40:49 10° E visible
06 Feb - 03:46:20 10° W 03:58:36 77° N 04:04:53 10° ENE visible
06 Feb - 06:17:01 10° W 06:23:23 32° NNW 06:27:44 10° NNE visible
06 Feb - 21:29:01 10° NNW 21:49:01 32° NE 22:02:46 10° E visible
06 Feb - 23:57:38 10° NW 00:18:43 61° NNE 00:29:50 10° E visible
07 Feb - 02:31:02 10° W 02:46:44 80° N 02:54:24 10° E visible
07 Feb - 05:03:16 10° W 05:12:38 54° NNW 05:17:57 10° NE visible
07 Feb - 20:18:02 10° N 20:35:01 23° NE 20:48:29 10° E daylight
07 Feb - 22:42:49 10° NW 23:05:13 50° NNE 23:18:22 10° E visible
08 Feb - 01:15:09 10° WNW 01:34:16 76° N 01:43:42 10° E visible
08 Feb - 03:48:46 10° W 04:01:20 72° NNW 04:07:45 10° ENE visible
08 Feb - 06:19:58 10° W 06:25:49 24° NW 06:29:55 10° NNE visible
08 Feb - 19:11:21 10° NNE 19:20:59 13° NE 19:29:49 10° ENE daylight
08 Feb - 21:29:11 10° NNW 21:51:17 40° NNE 22:06:10 10° E visible
08 Feb - 23:59:14 10° WNW 00:21:14 68° NNE 00:32:43 10° E visible
09 Feb - 02:33:22 10° W 02:49:27 81° N 02:57:17 10° E visible
09 Feb - 05:05:51 10° W 05:15:11 45° NNW 05:20:33 10° NE visible
09 Feb - 20:17:13 10° N 20:37:09 29° NE 20:52:40 10° E daylight
09 Feb - 22:43:58 10° NW 23:07:35 58° NNE 23:21:19 10° E visible
10 Feb - 01:17:16 10° WNW 01:36:55 80° N 01:46:34 10° E visible
10 Feb - 03:51:12 10° W 04:04:00 66° NNW 04:10:33 10° ENE visible
10 Feb - 06:23:14 10° W 06:28:06 18° NW 06:31:45 10° N visible
10 Feb - 19:07:50 10° N 19:23:05 19° NE 19:36:37 10° E daylight
10 Feb - 21:29:49 10° NW 21:53:29 48° NNE 22:09:17 10° E visible
11 Feb - 00:01:04 10° WNW 00:23:45 75° NNE 00:35:35 10° E visible
11 Feb - 02:35:41 10° W 02:52:08 79° N 03:00:09 10° ENE visible
11 Feb - 05:08:30 10° W 05:17:36 37° NW 05:23:00 10° NNE visible
11 Feb - 20:17:11 10° NNW 20:39:11 36° NE 20:56:12 10° E daylight
11 Feb - 22:45:25 10° NW 23:09:57 66° NNE 23:24:11 10° E visible
12 Feb - 01:19:28 10° W 01:39:34 82° N 01:49:26 10° E visible
12 Feb - 03:53:37 10° W 04:06:34 58° NNW 04:13:15 10° NE visible
12 Feb - 06:27:10 10° WNW 06:30:14 13° NW 06:32:49 10° NNW visible
12 Feb - 19:06:31 10° N 19:25:01 25° NE 19:41:21 10° E daylight
12 Feb - 21:30:51 10° NW 21:55:39 55° NNE 22:12:13 10° E visible
13 Feb - 00:03:03 10° WNW 00:26:16 79° N 00:38:24 10° E visible
13 Feb - 02:38:01 10° W 02:54:47 74° NNW 03:02:58 10° ENE visible
13 Feb - 05:11:15 10° W 05:19:53 29° NW 05:25:13 10° NNE visible
13 Feb - 17:59:37 10° NNE 18:11:08 15° NE 18:22:24 10° ENE daylight
13 Feb - 20:17:41 10° NNW 20:41:08 44° NE 20:59:23 10° E visible
13 Feb - 22:47:06 10° WNW 23:12:17 72° NNE 23:26:59 10° E visible
14 Feb - 01:21:43 10° W 01:42:12 82° N 01:52:18 10° E visible
14 Feb - 03:56:03 10° W 04:09:00 50° NNW 04:15:50 10° NE visible
14 Feb - 19:06:14 10° N 19:26:47 32° NE 19:45:10 10° E daylight
14 Feb - 21:32:11 10° NW 21:57:47 63° NNE 22:15:02 10° E visible
15 Feb - 00:05:10 10° WNW 00:28:48 82° N 00:41:14 10° E visible
15 Feb - 02:40:20 10° W 02:57:20 69° NNW 03:05:44 10° ENE visible
15 Feb - 05:14:14 10° W 05:22:00 23° NW 05:27:08 10° N visible
15 Feb - 17:57:13 10° N 18:12:52 21° NE 18:28:23 10° E daylight
15 Feb - 20:18:37 10° NW 20:43:03 51° NNE 21:02:20 10° E visible
15 Feb - 22:49:00 10° WNW 23:14:39 77° NNE 23:29:46 10° E visible
